Time,TemperatureF,DewpointF,PressureIn,WindDirection,WindDirectionDegrees,WindSpeedMPH,WindSpeedGustMPH,Humidity,HourlyPrecipIn,Conditions,Clouds,dailyrainin,SoftwareType,DateUTC
2013-02-12 00:00:00,34.9,26.5,29.53,SSW,209,0.0,1.0,71,0.00,,---,0.00,VWS V14.00,2013-02-12 06:00:00,
2013-02-12 00:05:00,34.9,26.8,29.50,SSW,208,0.0,1.0,72,0.00,,---,0.00,VWS V14.00,2013-02-12 06:05:00,
2013-02-12 00:10:00,34.9,26.8,29.50,SSW,208,0.0,1.0,72,0.00,,---,0.00,VWS V14.00,2013-02-12 06:10:00,
2013-02-12 00:15:00,34.7,26.6,29.50,SW,217,0.0,1.0,72,0.00,,---,0.00,VWS V14.00,2013-02-12 06:15:00,
2013-02-12 00:20:00,34.5,26.4,29.50,SW,217,0.0,1.0,72,0.00,,---,0.00,VWS V14.00,2013-02-12 06:20:00,
2013-02-12 00:25:00,34.9,26.8,29.50,SW,217,0.0,1.0,72,0.00,,---,0.00,VWS V14.00,2013-02-12 06:25:00,
2013-02-12 00:30:00,34.7,27.0,29.50,SW,217,0.0,1.0,73,0.00,,---,0.00,VWS V14.00,2013-02-12 06:30:00,
2013-02-12 00:35:00,34.5,26.8,29.50,SW,217,0.0,1.0,73,0.00,,---,0.00,VWS V14.00,2013-02-12 06:35:00,
2013-02-12 00:40:00,34.3,26.6,29.50,WSW,257,0.0,1.0,73,0.00,,---,0.00,VWS V14.00,2013-02-12 06:40:00,
2013-02-12 00:45:00,34.3,26.6,29.50,WSW,256,0.0,1.0,73,0.00,,---,0.00,VWS V14.00,2013-02-12 06:45:00,
2013-02-12 00:50:00,34.3,26.6,29.50,WSW,257,0.0,1.0,73,0.00,,---,0.00,VWS V14.00,2013-02-12 06:50:00,
2013-02-12 00:55:00,34.3,26.6,29.53,WSW,258,0.0,1.0,73,0.00,,---,0.00,VWS V14.00,2013-02-12 06:55:00,
2013-02-12 01:00:00,34.2,26.4,29.53,WSW,254,0.0,1.0,73,0.00,,---,0.00,VWS V14.00,2013-02-12 07:00:00,
2013-02-12 01:05:00,34.0,26.2,29.50,WSW,254,0.0,1.0,73,0.00,,---,0.00,VWS V14.00,2013-02-12 07:05:00,
2013-02-12 01:10:00,34.0,26.2,29.50,WSW,254,0.0,1.0,73,0.00,,---,0.00,VWS V14.00,2013-02-12 07:10:00,
2013-02-12 01:15:00,33.8,26.4,29.50,WSW,254,0.0,1.0,74,0.00,,---,0.00,VWS V14.00,2013-02-12 07:15:00,
2013-02-12 01:20:00,33.8,26.4,29.53,SW,220,0.0,1.0,74,0.00,,---,0.00,VWS V14.00,2013-02-12 07:20:00,
2013-02-12 01:25:00,33.8,26.4,29.53,SW,220,0.0,1.0,74,0.00,,---,0.00,VWS V14.00,2013-02-12 07:25:00,
2013-02-12 01:30:00,33.4,26.1,29.53,West,260,0.0,1.0,74,0.00,,---,0.00,VWS V14.00,2013-02-12 07:30:00,
2013-02-12 01:35:00,33.6,26.2,29.50,West,260,0.0,1.0,74,0.00,,---,0.00,VWS V14.00,2013-02-12 07:35:00,
2013-02-12 01:40:00,33.6,26.6,29.50,West,260,0.0,1.0,75,0.00,,---,0.00,VWS V14.00,2013-02-12 07:40:00,
2013-02-12 01:45:00,33.6,26.6,29.50,West,260,0.0,1.0,75,0.00,,---,0.00,VWS V14.00,2013-02-12 07:45:00,
2013-02-12 01:50:00,33.6,26.6,29.50,West,260,0.0,1.0,75,0.00,,---,0.00,VWS V14.00,2013-02-12 07:50:00,
2013-02-12 01:55:00,33.6,26.6,29.50,West,260,0.0,1.0,75,0.00,,---,0.00,VWS V14.00,2013-02-12 07:55:00,
2013-02-12 02:00:00,33.6,26.6,29.50,West,260,0.0,1.0,75,0.00,,---,0.00,VWS V14.00,2013-02-12 08:00:00,
2013-02-12 02:05:00,33.6,26.9,29.53,West,260,0.0,1.0,76,0.00,,---,0.00,VWS V14.00,2013-02-12 08:05:00,
2013-02-12 02:10:00,33.6,26.9,29.53,West,260,0.0,1.0,76,0.00,,---,0.00,VWS V14.00,2013-02-12 08:10:00,
2013-02-12 02:15:00,33.6,26.9,29.53,West,260,0.0,1.0,76,0.00,,---,0.00,VWS V14.00,2013-02-12 08:15:00,
2013-02-12 02:20:00,33.4,26.7,29.53,West,260,0.0,1.0,76,0.00,,---,0.00,VWS V14.00,2013-02-12 08:20:00,
2013-02-12 02:25:00,33.3,26.5,29.53,West,260,0.0,1.0,76,0.00,,---,0.00,VWS V14.00,2013-02-12 08:25:00,
2013-02-12 02:30:00,33.1,26.4,29.53,West,260,0.0,1.0,76,0.00,,---,0.00,VWS V14.00,2013-02-12 08:30:00,
2013-02-12 02:35:00,32.9,26.2,29.53,West,260,0.0,1.0,76,0.00,,---,0.00,VWS V14.00,2013-02-12 08:35:00,
2013-02-12 02:40:00,32.9,26.5,29.53,West,260,0.0,1.0,77,0.00,,---,0.00,VWS V14.00,2013-02-12 08:40:00,
2013-02-12 02:45:00,33.4,27.0,29.53,West,260,0.0,1.0,77,0.00,,---,0.00,VWS V14.00,2013-02-12 08:45:00,
2013-02-12 02:50:00,34.0,27.5,29.53,NW,316,0.0,1.0,77,0.00,,---,0.00,VWS V14.00,2013-02-12 08:50:00,
2013-02-12 02:55:00,34.0,27.5,29.53,NNW,338,0.0,1.0,77,0.00,,---,0.00,VWS V14.00,2013-02-12 08:55:00,
2013-02-12 03:00:00,34.0,27.5,29.53,NNW,338,0.0,1.0,77,0.00,,---,0.00,VWS V14.00,2013-02-12 09:00:00,
2013-02-12 03:05:00,33.6,27.5,29.53,NNW,338,0.0,1.0,78,0.00,,---,0.00,VWS V14.00,2013-02-12 09:05:00,
2013-02-12 03:10:00,33.6,27.2,29.53,NNW,338,0.0,1.0,77,0.00,,---,0.00,VWS V14.00,2013-02-12 09:10:00,
2013-02-12 03:15:00,33.1,26.7,29.53,NNW,338,0.0,1.0,77,0.00,,---,0.00,VWS V14.00,2013-02-12 09:15:00,
2013-02-12 03:20:00,32.9,26.5,29.50,NNW,338,0.0,1.0,77,0.00,,---,0.00,VWS V14.00,2013-02-12 09:20:00,
2013-02-12 03:25:00,32.9,26.5,29.50,NNW,338,0.0,1.0,77,0.00,,---,0.00,VWS V14.00,2013-02-12 09:25:00,
2013-02-12 03:30:00,32.9,26.5,29.50,NNW,338,0.0,1.0,77,0.00,,---,0.00,VWS V14.00,2013-02-12 09:30:00,
2013-02-12 03:35:00,32.2,25.8,29.50,NNW,338,0.0,1.0,77,0.00,,---,0.00,VWS V14.00,2013-02-12 09:35:00,
2013-02-12 03:40:00,32.0,25.6,29.50,NNW,338,0.0,1.0,77,0.00,,---,0.00,VWS V14.00,2013-02-12 09:40:00,
2013-02-12 03:45:00,32.0,25.6,29.50,NNW,338,0.0,1.0,77,0.00,,---,0.00,VWS V14.00,2013-02-12 09:45:00,
2013-02-12 03:50:00,31.5,25.1,29.50,NNW,338,0.0,1.0,77,0.00,,---,0.00,VWS V14.00,2013-02-12 09:50:00,
2013-02-12 03:55:00,31.5,25.1,29.50,NNW,338,0.0,1.0,77,0.00,,---,0.00,VWS V14.00,2013-02-12 09:55:00,
2013-02-12 04:00:00,31.5,25.1,29.50,NNW,338,0.0,1.0,77,0.00,,---,0.00,VWS V14.00,2013-02-12 10:00:00,
2013-02-12 04:05:00,31.5,25.1,29.50,NNW,338,0.0,1.0,77,0.00,,---,0.00,VWS V14.00,2013-02-12 10:05:00,
2013-02-12 04:10:00,31.5,25.1,29.50,NNW,338,0.0,1.0,77,0.00,,---,0.00,VWS V14.00,2013-02-12 10:10:00,
2013-02-12 04:15:00,31.5,25.1,29.50,NNW,338,0.0,1.0,77,0.00,,---,0.00,VWS V14.00,2013-02-12 10:15:00,
2013-02-12 04:20:00,31.5,25.1,29.53,NNW,338,0.0,1.0,77,0.00,,---,0.00,VWS V14.00,2013-02-12 10:20:00,
2013-02-12 04:25:00,30.2,24.5,29.53,NNW,338,0.0,1.0,79,0.00,,---,0.00,VWS V14.00,2013-02-12 10:25:00,
2013-02-12 04:30:00,30.2,24.5,29.53,NNW,338,0.0,1.0,79,0.00,,---,0.00,VWS V14.00,2013-02-12 10:30:00,
2013-02-12 04:35:00,29.8,24.1,29.53,NNW,338,0.0,1.0,79,0.00,,---,0.00,VWS V14.00,2013-02-12 10:35:00,
2013-02-12 04:40:00,29.8,24.1,29.53,NNW,338,0.0,1.0,79,0.00,,---,0.00,VWS V14.00,2013-02-12 10:40:00,
2013-02-12 04:45:00,29.8,24.1,29.53,NNW,338,0.0,1.0,79,0.00,,---,0.00,VWS V14.00,2013-02-12 10:45:00,
2013-02-12 04:50:00,30.0,24.3,29.50,NNW,338,0.0,1.0,79,0.00,,---,0.00,VWS V14.00,2013-02-12 10:50:00,
2013-02-12 04:55:00,30.0,24.3,29.50,NNW,338,0.0,1.0,79,0.00,,---,0.00,VWS V14.00,2013-02-12 10:55:00,
2013-02-12 05:00:00,30.0,24.3,29.50,NNW,338,0.0,1.0,79,0.00,,---,0.00,VWS V14.00,2013-02-12 11:00:00,
2013-02-12 05:05:00,30.0,24.3,29.50,NNW,338,0.0,1.0,79,0.00,,---,0.00,VWS V14.00,2013-02-12 11:05:00,
2013-02-12 05:10:00,30.9,25.5,29.50,NNW,338,0.0,1.0,80,0.00,,---,0.00,VWS V14.00,2013-02-12 11:10:00,
2013-02-12 05:15:00,31.1,25.7,29.50,NNW,338,0.0,1.0,80,0.00,,---,0.00,VWS V14.00,2013-02-12 11:15:00,
2013-02-12 05:20:00,31.1,25.7,29.50,NNW,338,0.0,1.0,80,0.00,,---,0.00,VWS V14.00,2013-02-12 11:20:00,
2013-02-12 05:25:00,31.1,25.7,29.50,NNW,338,0.0,1.0,80,0.00,,---,0.00,VWS V14.00,2013-02-12 11:25:00,
2013-02-12 05:30:00,31.1,25.7,29.50,NNW,338,0.0,1.0,80,0.00,,---,0.00,VWS V14.00,2013-02-12 11:30:00,
2013-02-12 05:35:00,29.8,24.7,29.50,NNW,338,0.0,1.0,81,0.00,,---,0.00,VWS V14.00,2013-02-12 11:35:00,
2013-02-12 05:40:00,29.7,24.6,29.50,NNW,338,0.0,1.0,81,0.00,,---,0.00,VWS V14.00,2013-02-12 11:40:00,
2013-02-12 05:45:00,29.7,24.6,29.50,NNW,338,0.0,1.0,81,0.00,,---,0.00,VWS V14.00,2013-02-12 11:45:00,
2013-02-12 05:50:00,29.7,24.6,29.50,NNW,338,0.0,1.0,81,0.00,,---,0.00,VWS V14.00,2013-02-12 11:50:00,
2013-02-12 05:55:00,29.7,24.6,29.50,NNW,338,0.0,1.0,81,0.00,,---,0.00,VWS V14.00,2013-02-12 11:55:00,
2013-02-12 06:00:00,29.3,24.2,29.50,NNW,338,0.0,1.0,81,0.00,,---,0.00,VWS V14.00,2013-02-12 12:00:00,
2013-02-12 06:05:00,29.3,24.2,29.50,NNW,338,0.0,1.0,81,0.00,,---,0.00,VWS V14.00,2013-02-12 12:05:00,
2013-02-12 06:10:00,29.1,24.0,29.50,NNW,338,0.0,1.0,81,0.00,,---,0.00,VWS V14.00,2013-02-12 12:10:00,
2013-02-12 06:15:00,29.1,24.0,29.50,NNW,338,0.0,1.0,81,0.00,,---,0.00,VWS V14.00,2013-02-12 12:15:00,
2013-02-12 06:20:00,29.1,24.0,29.50,NNW,338,0.0,1.0,81,0.00,,---,0.00,VWS V14.00,2013-02-12 12:20:00,
2013-02-12 06:25:00,29.8,25.0,29.50,NE,41,0.0,1.0,82,0.00,,---,0.00,VWS V14.00,2013-02-12 12:25:00,
2013-02-12 06:30:00,29.8,25.0,29.50,ENE,57,0.0,1.0,82,0.00,,---,0.00,VWS V14.00,2013-02-12 12:30:00,
2013-02-12 06:35:00,29.5,24.7,29.50,NE,56,0.0,1.0,82,0.00,,---,0.00,VWS V14.00,2013-02-12 12:35:00,
2013-02-12 06:40:00,29.3,24.5,29.50,ENE,57,0.0,5.8,82,0.00,,---,0.00,VWS V14.00,2013-02-12 12:40:00,
2013-02-12 06:45:00,29.3,24.5,29.50,ENE,58,0.0,5.0,82,0.00,,---,0.00,VWS V14.00,2013-02-12 12:45:00,
2013-02-12 06:50:00,29.3,24.5,29.50,ENE,59,0.0,1.0,82,0.00,,---,0.00,VWS V14.00,2013-02-12 12:50:00,
2013-02-12 06:55:00,29.3,24.5,29.50,ENE,58,0.0,1.0,82,0.00,,---,0.00,VWS V14.00,2013-02-12 12:55:00,
2013-02-12 07:00:00,28.8,24.3,29.50,ENE,58,0.0,1.0,83,0.00,,---,0.00,VWS V14.00,2013-02-12 13:00:00,
2013-02-12 07:05:00,29.8,25.6,29.50,ENE,58,0.0,1.0,84,0.00,,---,0.00,VWS V14.00,2013-02-12 13:05:00,
2013-02-12 07:10:00,30.7,26.8,29.50,ENE,59,0.0,1.0,85,0.00,,---,0.00,VWS V14.00,2013-02-12 13:10:00,
2013-02-12 07:15:00,31.3,27.6,29.50,ENE,58,0.0,1.0,86,0.00,,---,0.00,VWS V14.00,2013-02-12 13:15:00,
2013-02-12 07:20:00,31.3,27.6,29.50,ENE,58,0.0,1.0,86,0.00,,---,0.00,VWS V14.00,2013-02-12 13:20:00,
2013-02-12 07:25:00,32.2,28.8,29.50,ENE,59,0.0,1.0,87,0.00,,---,0.00,VWS V14.00,2013-02-12 13:25:00,
2013-02-12 07:30:00,32.2,28.8,29.50,ENE,58,0.0,1.0,87,0.00,,---,0.00,VWS V14.00,2013-02-12 13:30:00,
2013-02-12 07:36:00,32.9,29.5,29.50,ENE,58,0.0,1.0,87,0.00,,---,0.00,VWS V14.00,2013-02-12 13:36:00,
2013-02-12 07:41:00,32.9,29.2,29.50,ENE,59,0.0,1.0,86,0.00,,---,0.00,VWS V14.00,2013-02-12 13:41:00,
2013-02-12 07:46:00,32.9,29.2,29.50,ENE,58,0.0,1.0,86,0.00,,---,0.00,VWS V14.00,2013-02-12 13:46:00,
2013-02-12 07:51:00,33.6,29.9,29.47,ENE,58,0.0,1.0,86,0.00,,---,0.00,VWS V14.00,2013-02-12 13:51:00,
2013-02-12 07:56:00,33.6,29.9,29.47,ENE,58,0.0,1.0,86,0.00,,---,0.00,VWS V14.00,2013-02-12 13:56:00,
2013-02-12 08:01:00,35.1,31.3,29.47,ENE,69,4.0,5.8,86,0.00,,---,0.00,VWS V14.00,2013-02-12 14:01:00,
2013-02-12 08:06:00,35.1,31.3,29.47,ENE,65,5.4,7.4,86,0.00,,---,0.00,VWS V14.00,2013-02-12 14:06:00,
2013-02-12 08:11:00,35.1,31.3,29.47,ENE,61,3.4,9.9,86,0.00,,---,0.00,VWS V14.00,2013-02-12 14:11:00,
2013-02-12 08:16:00,35.1,31.3,29.47,NE,55,0.0,1.0,86,0.00,,---,0.00,VWS V14.00,2013-02-12 14:16:00,
2013-02-12 08:21:00,35.1,31.3,29.47,NE,46,5.4,7.4,86,0.00,,---,0.00,VWS V14.00,2013-02-12 14:21:00,
2013-02-12 08:26:00,37.9,33.0,29.47,NE,38,8.1,10.7,82,0.00,,---,0.00,VWS V14.00,2013-02-12 14:26:00,
2013-02-12 08:31:00,37.9,33.0,29.47,ENE,65,8.1,11.5,82,0.00,,---,0.00,VWS V14.00,2013-02-12 14:31:00,
2013-02-12 08:36:00,37.9,33.0,29.47,ENE,60,4.0,5.8,82,0.00,,---,0.00,VWS V14.00,2013-02-12 14:36:00,
2013-02-12 08:41:00,37.9,33.0,29.50,ENE,73,5.4,12.3,82,0.00,,---,0.00,VWS V14.00,2013-02-12 14:41:00,
2013-02-12 08:46:00,37.9,33.0,29.50,NE,56,8.7,11.5,82,0.00,,---,0.00,VWS V14.00,2013-02-12 14:46:00,
2013-02-12 08:51:00,40.5,32.5,29.50,ENE,58,4.7,7.4,73,0.00,,---,0.00,VWS V14.00,2013-02-12 14:51:00,
2013-02-12 08:56:00,41.2,31.1,29.50,East,81,10.1,13.1,67,0.00,,---,0.00,VWS V14.00,2013-02-12 14:56:00,
2013-02-12 09:01:00,41.2,31.1,29.50,ENE,70,6.0,8.2,67,0.00,,---,0.00,VWS V14.00,2013-02-12 15:01:00,
2013-02-12 09:06:00,41.2,31.1,29.50,ENE,65,8.7,11.5,67,0.00,,---,0.00,VWS V14.00,2013-02-12 15:06:00,
2013-02-12 09:11:00,41.2,31.1,29.50,East,83,10.7,13.9,67,0.00,,---,0.00,VWS V14.00,2013-02-12 15:11:00,
2013-02-12 09:16:00,41.2,31.1,29.50,NE,55,6.0,8.2,67,0.00,,---,0.00,VWS V14.00,2013-02-12 15:16:00,
2013-02-12 09:21:00,41.2,31.1,29.50,NE,55,6.0,8.2,67,0.00,,---,0.00,VWS V14.00,2013-02-12 15:21:00,
2013-02-12 09:26:00,41.2,31.1,29.50,ENE,69,4.0,16.7,67,0.00,,---,0.00,VWS V14.00,2013-02-12 15:26:00,
2013-02-12 09:31:00,41.2,31.1,29.50,ENE,73,14.4,18.3,67,0.00,,---,0.00,VWS V14.00,2013-02-12 15:31:00,
2013-02-12 09:36:00,41.2,31.1,29.50,East,97,8.1,10.7,67,0.00,,---,0.00,VWS V14.00,2013-02-12 15:36:00,
2013-02-12 09:41:00,45.3,29.7,29.50,ENE,61,6.0,8.2,54,0.00,,---,0.00,VWS V14.00,2013-02-12 15:41:00,
2013-02-12 09:46:00,45.3,29.7,29.50,NE,40,6.0,8.2,54,0.00,,---,0.00,VWS V14.00,2013-02-12 15:46:00,
2013-02-12 09:51:00,45.3,29.7,29.47,NE,40,9.4,12.3,54,0.00,,---,0.00,VWS V14.00,2013-02-12 15:51:00,
2013-02-12 09:56:00,45.3,29.7,29.47,NE,34,9.4,12.3,54,0.00,,---,0.00,VWS V14.00,2013-02-12 15:56:00,
2013-02-12 10:01:00,45.3,29.7,29.47,ENE,59,8.1,10.7,54,0.00,,---,0.00,VWS V14.00,2013-02-12 16:01:00,
2013-02-12 10:06:00,45.3,29.7,29.47,NE,54,4.0,6.6,54,0.00,,---,0.00,VWS V14.00,2013-02-12 16:06:00,
2013-02-12 10:11:00,45.3,29.7,29.47,ENE,71,5.4,14.7,54,0.00,,---,0.00,VWS V14.00,2013-02-12 16:11:00,
2013-02-12 10:16:00,45.3,29.7,29.47,ENE,59,9.4,12.3,54,0.00,,---,0.00,VWS V14.00,2013-02-12 16:16:00,
2013-02-12 10:21:00,45.3,29.7,29.44,ENE,73,8.7,11.5,54,0.00,,---,0.00,VWS V14.00,2013-02-12 16:21:00,
2013-02-12 10:26:00,45.3,29.7,29.44,NE,40,7.4,9.9,54,0.00,,---,0.00,VWS V14.00,2013-02-12 16:26:00,
2013-02-12 10:31:00,45.3,29.7,29.44,NE,50,4.0,5.8,54,0.00,,---,0.00,VWS V14.00,2013-02-12 16:31:00,
2013-02-12 10:36:00,45.3,29.7,29.47,NE,52,7.4,9.9,54,0.00,,---,0.00,VWS V14.00,2013-02-12 16:36:00,
2013-02-12 10:41:00,45.3,29.7,29.47,NE,53,5.4,7.4,54,0.00,,---,0.00,VWS V14.00,2013-02-12 16:41:00,
2013-02-12 10:46:00,45.3,29.7,29.47,ENE,58,4.7,8.2,54,0.00,,---,0.00,VWS V14.00,2013-02-12 16:46:00,
2013-02-12 10:51:00,47.3,27.6,29.47,NE,51,4.7,13.9,46,0.00,,---,0.00,VWS V14.00,2013-02-12 16:51:00,
2013-02-12 10:56:00,47.3,27.6,29.47,East,89,4.7,6.6,46,0.00,,---,0.00,VWS V14.00,2013-02-12 16:56:00,
2013-02-12 11:01:00,47.3,27.6,29.47,East,86,8.7,12.3,46,0.00,,---,0.00,VWS V14.00,2013-02-12 17:01:00,
2013-02-12 11:06:00,47.3,27.6,29.47,East,97,4.7,6.6,46,0.00,,---,0.00,VWS V14.00,2013-02-12 17:06:00,
2013-02-12 11:11:00,47.3,27.6,29.47,ESE,120,6.0,8.2,46,0.00,,---,0.00,VWS V14.00,2013-02-12 17:11:00,
2013-02-12 11:16:00,48.2,26.8,29.47,East,97,8.1,11.5,43,0.00,,---,0.00,VWS V14.00,2013-02-12 17:16:00,
2013-02-12 11:21:00,48.2,26.8,29.50,East,93,7.4,9.9,43,0.00,,---,0.00,VWS V14.00,2013-02-12 17:21:00,
2013-02-12 11:26:00,48.2,26.8,29.50,SE,126,5.4,11.5,43,0.00,,---,0.00,VWS V14.00,2013-02-12 17:26:00,
2013-02-12 11:31:00,48.2,26.8,29.50,SE,133,7.4,10.7,43,0.00,,---,0.00,VWS V14.00,2013-02-12 17:31:00,
2013-02-12 11:36:00,48.2,26.8,29.47,ESE,113,5.4,7.4,43,0.00,,---,0.00,VWS V14.00,2013-02-12 17:36:00,
2013-02-12 11:41:00,48.4,26.4,29.47,ESE,123,5.4,15.9,42,0.00,,---,0.00,VWS V14.00,2013-02-12 17:41:00,
2013-02-12 11:46:00,48.4,26.4,29.47,East,99,4.7,9.9,42,0.00,,---,0.00,VWS V14.00,2013-02-12 17:46:00,
2013-02-12 11:51:00,48.4,26.4,29.47,ENE,70,6.0,8.2,42,0.00,,---,0.00,VWS V14.00,2013-02-12 17:51:00,
2013-02-12 11:56:00,48.4,26.4,29.47,NE,51,4.7,11.5,42,0.00,,---,0.00,VWS V14.00,2013-02-12 17:56:00,
2013-02-12 12:01:00,48.7,26.7,29.47,ENE,66,6.0,14.7,42,0.00,,---,0.00,VWS V14.00,2013-02-12 18:01:00,
2013-02-12 12:06:00,48.7,26.7,29.47,ENE,62,5.4,7.4,42,0.00,,---,0.00,VWS V14.00,2013-02-12 18:06:00,
2013-02-12 12:11:00,48.4,26.4,29.47,ENE,64,4.0,5.8,42,0.00,,---,0.00,VWS V14.00,2013-02-12 18:11:00,
2013-02-12 12:16:00,48.4,26.4,29.47,East,84,5.4,9.9,42,0.00,,---,0.00,VWS V14.00,2013-02-12 18:16:00,
2013-02-12 12:21:00,48.7,27.3,29.47,East,83,8.7,11.5,43,0.00,,---,0.00,VWS V14.00,2013-02-12 18:21:00,
2013-02-12 12:26:00,48.7,26.1,29.47,ESE,109,6.0,8.2,41,0.00,,---,0.00,VWS V14.00,2013-02-12 18:26:00,
2013-02-12 12:31:00,48.7,26.1,29.47,SE,124,8.1,11.5,41,0.00,,---,0.00,VWS V14.00,2013-02-12 18:31:00,
2013-02-12 12:36:00,48.7,26.1,29.44,SE,124,7.4,9.9,41,0.00,,---,0.00,VWS V14.00,2013-02-12 18:36:00,
2013-02-12 12:41:00,48.7,26.1,29.44,East,89,4.0,6.6,41,0.00,,---,0.00,VWS V14.00,2013-02-12 18:41:00,
2013-02-12 12:46:00,48.6,26.5,29.44,East,87,8.1,12.3,42,0.00,,---,0.00,VWS V14.00,2013-02-12 18:46:00,
2013-02-12 12:51:00,48.6,26.5,29.44,ENE,70,4.7,6.6,42,0.00,,---,0.00,VWS V14.00,2013-02-12 18:51:00,
2013-02-12 12:56:00,48.6,26.0,29.44,ENE,69,6.0,14.7,41,0.00,,---,0.00,VWS V14.00,2013-02-12 18:56:00,
2013-02-12 13:01:00,48.6,26.0,29.44,East,95,8.1,10.7,41,0.00,,---,0.00,VWS V14.00,2013-02-12 19:01:00,
2013-02-12 13:06:00,48.6,26.0,29.44,ENE,69,4.0,5.8,41,0.00,,---,0.00,VWS V14.00,2013-02-12 19:06:00,
2013-02-12 13:11:00,48.4,26.4,29.44,East,98,6.7,9.1,42,0.00,,---,0.00,VWS V14.00,2013-02-12 19:11:00,
2013-02-12 13:16:00,48.4,26.4,29.44,ENE,63,3.4,9.1,42,0.00,,---,0.00,VWS V14.00,2013-02-12 19:16:00,
2013-02-12 13:21:00,48.4,26.4,29.41,NE,56,4.7,8.2,42,0.00,,---,0.00,VWS V14.00,2013-02-12 19:21:00,
2013-02-12 13:26:00,48.4,26.4,29.41,ENE,71,4.0,12.3,42,0.00,,---,0.00,VWS V14.00,2013-02-12 19:26:00,
2013-02-12 13:31:00,48.4,26.4,29.41,ENE,73,5.4,7.4,42,0.00,,---,0.00,VWS V14.00,2013-02-12 19:31:00,
2013-02-12 13:36:00,48.4,26.4,29.41,East,101,8.1,10.7,42,0.00,,---,0.00,VWS V14.00,2013-02-12 19:36:00,
2013-02-12 13:41:00,48.4,26.4,29.41,ENE,77,5.4,7.4,42,0.00,,---,0.00,VWS V14.00,2013-02-12 19:41:00,
2013-02-12 13:46:00,48.4,26.4,29.41,East,90,0.0,1.0,42,0.00,,---,0.00,VWS V14.00,2013-02-12 19:46:00,
2013-02-12 13:51:00,48.4,26.4,29.44,ENE,73,4.7,8.2,42,0.00,,---,0.00,VWS V14.00,2013-02-12 19:51:00,
2013-02-12 13:56:00,48.4,26.4,29.44,ENE,71,5.4,7.4,42,0.00,,---,0.00,VWS V14.00,2013-02-12 19:56:00,
2013-02-12 14:01:00,48.4,26.4,29.44,East,79,4.7,6.6,42,0.00,,---,0.00,VWS V14.00,2013-02-12 20:01:00,
2013-02-12 14:06:00,48.4,26.4,29.41,ENE,70,4.7,7.4,42,0.00,,---,0.00,VWS V14.00,2013-02-12 20:06:00,
2013-02-12 14:11:00,48.4,26.4,29.41,ENE,64,5.4,7.4,42,0.00,,---,0.00,VWS V14.00,2013-02-12 20:11:00,
2013-02-12 14:16:00,48.4,26.4,29.41,ENE,62,5.4,7.4,42,0.00,,---,0.00,VWS V14.00,2013-02-12 20:16:00,
2013-02-12 14:21:00,48.4,26.4,29.38,ESE,109,4.0,8.2,42,0.00,,---,0.00,VWS V14.00,2013-02-12 20:21:00,
2013-02-12 14:26:00,48.4,26.4,29.38,East,93,6.0,8.2,42,0.00,,---,0.00,VWS V14.00,2013-02-12 20:26:00,
2013-02-12 14:31:00,48.4,26.4,29.38,SE,137,6.0,8.2,42,0.00,,---,0.00,VWS V14.00,2013-02-12 20:31:00,
2013-02-12 14:36:00,48.4,26.4,29.38,East,79,8.7,11.5,42,0.00,,---,0.00,VWS V14.00,2013-02-12 20:36:00,
2013-02-12 14:41:00,48.4,26.4,29.38,ESE,106,5.4,12.3,42,0.00,,---,0.00,VWS V14.00,2013-02-12 20:41:00,
2013-02-12 14:46:00,48.4,26.4,29.38,East,98,4.0,10.7,42,0.00,,---,0.00,VWS V14.00,2013-02-12 20:46:00,
2013-02-12 14:51:00,48.4,26.4,29.38,East,84,9.4,16.7,42,0.00,,---,0.00,VWS V14.00,2013-02-12 20:51:00,
2013-02-12 14:56:00,48.4,26.4,29.38,ENE,73,6.0,12.3,42,0.00,,---,0.00,VWS V14.00,2013-02-12 20:56:00,
2013-02-12 15:01:00,48.4,26.4,29.38,ENE,67,5.4,7.4,42,0.00,,---,0.00,VWS V14.00,2013-02-12 21:01:00,
2013-02-12 15:06:00,48.4,26.4,29.35,ENE,70,8.1,11.5,42,0.00,,---,0.00,VWS V14.00,2013-02-12 21:06:00,
2013-02-12 15:11:00,48.4,26.4,29.35,East,97,8.7,11.5,42,0.00,,---,0.00,VWS V14.00,2013-02-12 21:11:00,
2013-02-12 15:16:00,48.4,26.4,29.35,ENE,75,4.0,9.9,42,0.00,,---,0.00,VWS V14.00,2013-02-12 21:16:00,
2013-02-12 15:21:00,48.4,26.4,29.35,ENE,72,5.4,7.4,42,0.00,,---,0.00,VWS V14.00,2013-02-12 21:21:00,
2013-02-12 15:26:00,48.4,26.4,29.35,ENE,74,4.0,5.8,42,0.00,,---,0.00,VWS V14.00,2013-02-12 21:26:00,
2013-02-12 15:31:00,47.7,27.4,29.35,ENE,72,8.1,13.9,45,0.00,,---,0.00,VWS V14.00,2013-02-12 21:31:00,
2013-02-12 15:36:00,47.7,27.4,29.32,ENE,67,5.4,9.1,45,0.00,,---,0.00,VWS V14.00,2013-02-12 21:36:00,
2013-02-12 15:41:00,47.7,27.4,29.32,ENE,66,5.4,7.4,45,0.00,,---,0.00,VWS V14.00,2013-02-12 21:41:00,
2013-02-12 15:46:00,47.7,27.4,29.32,ENE,67,5.4,12.3,45,0.00,,---,0.00,VWS V14.00,2013-02-12 21:46:00,
2013-02-12 15:51:00,47.7,27.4,29.32,ENE,72,0.0,6.6,45,0.00,,---,0.00,VWS V14.00,2013-02-12 21:51:00,
2013-02-12 15:56:00,47.7,27.4,29.32,ESE,119,4.7,7.4,45,0.00,,---,0.00,VWS V14.00,2013-02-12 21:56:00,
2013-02-12 16:01:00,47.7,27.4,29.32,East,93,5.4,7.4,45,0.00,,---,0.00,VWS V14.00,2013-02-12 22:01:00,
2013-02-12 16:06:00,47.7,27.4,29.35,East,91,0.0,5.8,45,0.00,,---,0.00,VWS V14.00,2013-02-12 22:06:00,
2013-02-12 16:11:00,47.7,27.4,29.35,SE,124,0.0,1.0,45,0.00,,---,0.00,VWS V14.00,2013-02-12 22:11:00,
2013-02-12 16:16:00,47.7,27.4,29.35,SE,138,0.0,5.0,45,0.00,,---,0.00,VWS V14.00,2013-02-12 22:16:00,
2013-02-12 16:21:00,47.7,27.4,29.35,SSE,149,5.4,7.4,45,0.00,,---,0.00,VWS V14.00,2013-02-12 22:21:00,
2013-02-12 16:26:00,47.7,27.4,29.35,SE,133,4.0,7.4,45,0.00,,---,0.00,VWS V14.00,2013-02-12 22:26:00,
2013-02-12 16:31:00,47.7,27.4,29.35,ESE,114,4.0,7.4,45,0.00,,---,0.00,VWS V14.00,2013-02-12 22:31:00,
2013-02-12 16:36:00,47.7,27.4,29.35,East,83,4.0,8.2,45,0.00,,---,0.00,VWS V14.00,2013-02-12 22:36:00,
2013-02-12 16:41:00,47.7,27.4,29.35,East,83,4.0,5.8,45,0.00,,---,0.00,VWS V14.00,2013-02-12 22:41:00,
2013-02-12 16:46:00,47.7,27.4,29.35,ENE,78,4.7,6.6,45,0.00,,---,0.00,VWS V14.00,2013-02-12 22:46:00,
2013-02-12 16:51:00,47.7,27.4,29.35,ENE,65,0.0,1.0,45,0.00,,---,0.00,VWS V14.00,2013-02-12 22:51:00,
2013-02-12 16:56:00,47.7,27.4,29.35,NE,50,3.4,5.0,45,0.00,,---,0.00,VWS V14.00,2013-02-12 22:56:00,
2013-02-12 17:01:00,47.7,27.4,29.35,NE,49,0.0,1.0,45,0.00,,---,0.00,VWS V14.00,2013-02-12 23:01:00,
2013-02-12 17:06:00,47.7,27.4,29.32,ENE,61,0.0,5.8,45,0.00,,---,0.00,VWS V14.00,2013-02-12 23:06:00,
2013-02-12 17:11:00,47.7,27.4,29.32,NE,41,4.0,12.3,45,0.00,,---,0.00,VWS V14.00,2013-02-12 23:11:00,
2013-02-12 17:16:00,47.7,27.4,29.32,NE,36,8.1,10.7,45,0.00,,---,0.00,VWS V14.00,2013-02-12 23:16:00,
2013-02-12 17:21:00,47.7,27.4,29.32,NE,36,9.4,12.3,45,0.00,,---,0.00,VWS V14.00,2013-02-12 23:21:00,
2013-02-12 17:26:00,46.2,28.1,29.32,NE,43,6.0,10.7,49,0.00,,---,0.00,VWS V14.00,2013-02-12 23:26:00,
2013-02-12 17:31:00,46.2,28.1,29.32,NNE,20,8.7,11.5,49,0.00,,---,0.00,VWS V14.00,2013-02-12 23:31:00,
2013-02-12 17:36:00,46.0,28.0,29.32,NNE,30,8.1,10.7,49,0.00,,---,0.00,VWS V14.00,2013-02-12 23:36:00,
2013-02-12 17:41:00,45.9,28.3,29.32,NNE,32,8.7,11.5,50,0.00,,---,0.00,VWS V14.00,2013-02-12 23:41:00,
2013-02-12 17:46:00,45.7,28.1,29.32,NNE,19,8.1,10.7,50,0.00,,---,0.00,VWS V14.00,2013-02-12 23:46:00,
2013-02-12 17:51:00,45.5,28.4,29.32,NNE,25,8.7,11.5,51,0.00,,---,0.00,VWS V14.00,2013-02-12 23:51:00,
2013-02-12 17:56:00,45.3,28.3,29.32,NNE,24,9.4,12.3,51,0.00,,---,0.00,VWS V14.00,2013-02-12 23:56:00,
2013-02-12 18:01:00,45.1,28.1,29.32,NNE,30,12.1,15.5,51,0.00,,---,0.00,VWS V14.00,2013-02-13 00:01:00,
2013-02-12 18:06:00,45.1,28.1,29.32,NNE,22,14.4,18.3,51,0.00,,---,0.00,VWS V14.00,2013-02-13 00:06:00,
2013-02-12 18:11:00,45.3,28.3,29.32,NNE,20,12.1,15.9,51,0.00,,---,0.00,VWS V14.00,2013-02-13 00:11:00,
2013-02-12 18:16:00,45.3,28.3,29.32,NNE,31,8.7,14.7,51,0.00,,---,0.00,VWS V14.00,2013-02-13 00:16:00,
2013-02-12 18:21:00,45.3,28.3,29.29,NNE,30,11.4,14.7,51,0.00,,---,0.00,VWS V14.00,2013-02-13 00:21:00,
2013-02-12 18:26:00,45.5,28.0,29.29,NE,38,9.4,12.3,50,0.00,,---,0.00,VWS V14.00,2013-02-13 00:26:00,
2013-02-12 18:31:00,45.5,28.0,29.29,NNE,14,12.4,15.9,50,0.00,,---,0.00,VWS V14.00,2013-02-13 00:31:00,
2013-02-12 18:36:00,45.5,28.0,29.29,North,8,5.4,8.2,50,0.00,,---,0.00,VWS V14.00,2013-02-13 00:36:00,
2013-02-12 18:41:00,45.5,28.0,29.29,NE,46,0.0,1.0,50,0.00,,---,0.00,VWS V14.00,2013-02-13 00:41:00,
2013-02-12 18:46:00,45.5,28.0,29.29,ESE,108,4.0,5.8,50,0.00,,---,0.00,VWS V14.00,2013-02-13 00:46:00,
2013-02-12 18:51:00,45.5,28.0,29.32,East,80,3.4,5.0,50,0.00,,---,0.00,VWS V14.00,2013-02-13 00:51:00,
2013-02-12 18:56:00,45.5,28.0,29.32,East,83,4.0,5.8,50,0.00,,---,0.00,VWS V14.00,2013-02-13 00:56:00,
2013-02-12 19:01:00,45.5,28.0,29.32,East,88,4.7,7.4,50,0.00,,---,0.00,VWS V14.00,2013-02-13 01:01:00,
2013-02-12 19:06:00,45.3,27.8,29.32,ENE,77,4.7,6.6,50,0.00,,---,0.00,VWS V14.00,2013-02-13 01:06:00,
2013-02-12 19:11:00,45.3,28.3,29.32,ENE,69,4.0,5.8,51,0.00,,---,0.00,VWS V14.00,2013-02-13 01:11:00,
2013-02-12 19:16:00,45.3,28.3,29.32,ENE,78,6.0,8.2,51,0.00,,---,0.00,VWS V14.00,2013-02-13 01:16:00,
2013-02-12 19:21:00,45.3,28.3,29.32,East,82,6.0,8.2,51,0.00,,---,0.00,VWS V14.00,2013-02-13 01:21:00,
2013-02-12 19:26:00,45.1,28.1,29.32,ENE,78,5.4,7.4,51,0.00,,---,0.00,VWS V14.00,2013-02-13 01:26:00,
2013-02-12 19:31:00,45.1,28.1,29.32,East,87,6.0,8.2,51,0.00,,---,0.00,VWS V14.00,2013-02-13 01:31:00,
2013-02-12 19:36:00,45.0,27.9,29.32,East,93,5.4,10.7,51,0.00,,---,0.00,VWS V14.00,2013-02-13 01:36:00,
2013-02-12 19:41:00,44.8,28.2,29.32,East,101,6.7,9.1,52,0.00,,---,0.00,VWS V14.00,2013-02-13 01:41:00,
2013-02-12 19:46:00,45.0,27.9,29.32,ENE,78,6.0,8.2,51,0.00,,---,0.00,VWS V14.00,2013-02-13 01:46:00,
2013-02-12 19:51:00,45.0,28.4,29.29,ENE,75,4.7,6.6,52,0.00,,---,0.00,VWS V14.00,2013-02-13 01:51:00,
2013-02-12 19:56:00,44.8,28.7,29.29,NE,56,3.4,5.8,53,0.00,,---,0.00,VWS V14.00,2013-02-13 01:56:00,
2013-02-12 20:01:00,44.6,29.0,29.29,NE,47,4.7,6.6,54,0.00,,---,0.00,VWS V14.00,2013-02-13 02:01:00,
2013-02-12 20:06:00,44.6,28.5,29.29,NE,48,4.7,11.5,53,0.00,,---,0.00,VWS V14.00,2013-02-13 02:06:00,
2013-02-12 20:11:00,44.8,28.7,29.29,NE,39,8.1,10.7,53,0.00,,---,0.00,VWS V14.00,2013-02-13 02:11:00,
2013-02-12 20:16:00,44.8,28.7,29.29,NE,41,6.0,8.2,53,0.00,,---,0.00,VWS V14.00,2013-02-13 02:16:00,
2013-02-12 20:21:00,44.2,28.7,29.26,NNE,24,12.1,15.5,54,0.00,,---,0.00,VWS V14.00,2013-02-13 02:21:00,
2013-02-12 20:26:00,44.2,29.1,29.26,NE,46,4.0,5.8,55,0.00,,---,0.00,VWS V14.00,2013-02-13 02:26:00,
2013-02-12 20:31:00,44.4,28.8,29.26,ENE,70,7.4,9.9,54,0.00,,---,0.00,VWS V14.00,2013-02-13 02:31:00,
2013-02-12 20:36:00,44.6,29.0,29.26,ENE,64,5.4,7.4,54,0.00,,---,0.00,VWS V14.00,2013-02-13 02:36:00,
2013-02-12 20:41:00,44.4,29.3,29.26,ENE,72,8.1,10.7,55,0.00,,---,0.00,VWS V14.00,2013-02-13 02:41:00,
2013-02-12 20:46:00,44.4,28.8,29.26,ENE,68,6.0,11.5,54,0.00,,---,0.00,VWS V14.00,2013-02-13 02:46:00,
2013-02-12 20:51:00,44.4,29.3,29.26,ENE,75,8.1,10.7,55,0.00,,---,0.00,VWS V14.00,2013-02-13 02:51:00,
2013-02-12 20:56:00,44.2,29.5,29.26,SE,125,8.7,11.5,56,0.00,,---,0.00,VWS V14.00,2013-02-13 02:56:00,
2013-02-12 21:01:00,44.1,29.8,29.26,ESE,115,4.0,5.8,57,0.00,,---,0.00,VWS V14.00,2013-02-13 03:01:00,
2013-02-12 21:06:00,43.9,29.6,29.26,SE,133,4.7,6.6,57,0.00,,---,0.00,VWS V14.00,2013-02-13 03:06:00,
2013-02-12 21:11:00,43.7,29.9,29.26,East,98,4.7,6.6,58,0.00,,---,0.00,VWS V14.00,2013-02-13 03:11:00,
2013-02-12 21:16:00,43.7,29.9,29.26,ESE,105,4.0,6.6,58,0.00,,---,0.00,VWS V14.00,2013-02-13 03:16:00,
2013-02-12 21:21:00,43.7,29.5,29.26,ESE,102,6.0,10.7,57,0.00,,---,0.00,VWS V14.00,2013-02-13 03:21:00,
2013-02-12 21:26:00,43.9,29.6,29.26,East,101,4.7,6.6,57,0.00,,---,0.00,VWS V14.00,2013-02-13 03:26:00,
2013-02-12 21:31:00,43.9,29.6,29.26,ENE,75,5.4,7.4,57,0.00,,---,0.00,VWS V14.00,2013-02-13 03:31:00,
2013-02-12 21:36:00,43.9,29.2,29.26,East,81,6.0,8.2,56,0.00,,---,0.00,VWS V14.00,2013-02-13 03:36:00,
2013-02-12 21:41:00,44.1,29.4,29.26,East,96,8.1,10.7,56,0.00,,---,0.00,VWS V14.00,2013-02-13 03:41:00,
2013-02-12 21:46:00,44.1,29.4,29.26,East,82,6.0,8.2,56,0.00,,---,0.00,VWS V14.00,2013-02-13 03:46:00,
2013-02-12 21:51:00,43.9,29.2,29.23,ENE,76,4.7,9.9,56,0.00,,---,0.00,VWS V14.00,2013-02-13 03:51:00,
2013-02-12 21:56:00,43.7,29.5,29.23,ENE,69,4.7,7.4,57,0.00,,---,0.00,VWS V14.00,2013-02-13 03:56:00,
2013-02-12 22:01:00,43.5,29.7,29.23,NE,45,4.0,5.8,58,0.00,,---,0.00,VWS V14.00,2013-02-13 04:01:00,
2013-02-12 22:06:00,43.5,29.7,29.23,NE,35,9.4,12.3,58,0.00,,---,0.00,VWS V14.00,2013-02-13 04:06:00,
2013-02-12 22:11:00,43.5,29.7,29.23,NE,36,8.1,12.3,58,0.00,,---,0.00,VWS V14.00,2013-02-13 04:11:00,
2013-02-12 22:16:00,43.3,30.0,29.23,NNE,21,8.7,11.5,59,0.00,,---,0.00,VWS V14.00,2013-02-13 04:16:00,
2013-02-12 22:21:00,43.0,30.1,29.23,NNE,31,8.1,10.7,60,0.00,,---,0.00,VWS V14.00,2013-02-13 04:21:00,
2013-02-12 22:26:00,43.0,30.5,29.23,NE,37,8.7,11.5,61,0.00,,---,0.00,VWS V14.00,2013-02-13 04:26:00,
2013-02-12 22:31:00,43.0,30.9,29.23,NNE,31,8.7,11.5,62,0.00,,---,0.00,VWS V14.00,2013-02-13 04:31:00,
2013-02-12 22:36:00,43.0,30.5,29.23,NE,34,11.4,14.7,61,0.00,,---,0.00,VWS V14.00,2013-02-13 04:36:00,
2013-02-12 22:41:00,43.0,30.5,29.23,NNE,33,7.4,10.7,61,0.00,,---,0.00,VWS V14.00,2013-02-13 04:41:00,
2013-02-12 22:46:00,42.8,30.7,29.23,NE,35,8.1,10.7,62,0.00,,---,0.00,VWS V14.00,2013-02-13 04:46:00,
2013-02-12 22:51:00,42.8,30.7,29.23,NE,35,8.1,10.7,62,0.00,,---,0.00,VWS V14.00,2013-02-13 04:51:00,
2013-02-12 22:56:00,42.8,30.7,29.23,NNE,29,9.4,12.3,62,0.00,,---,0.00,VWS V14.00,2013-02-13 04:56:00,
2013-02-12 23:00:00,42.8,30.7,29.23,NE,34,11.4,14.7,62,0.00,,---,0.00,VWS V14.00,2013-02-13 05:00:00,
2013-02-12 23:05:00,42.8,31.1,29.23,NNE,22,8.1,10.7,63,0.00,,---,0.00,VWS V14.00,2013-02-13 05:05:00,
2013-02-12 23:10:00,43.0,30.9,29.23,NE,44,8.1,10.7,62,0.00,,---,0.00,VWS V14.00,2013-02-13 05:10:00,
2013-02-12 23:15:00,43.0,30.5,29.23,NE,44,4.0,5.8,61,0.00,,---,0.00,VWS V14.00,2013-02-13 05:15:00,
2013-02-12 23:20:00,43.0,30.5,29.23,NNE,33,10.1,13.1,61,0.00,,---,0.00,VWS V14.00,2013-02-13 05:20:00,